FW2969 Weather Reports


time (UTC)temp
F
wind
direction
speed
knots
gust
knots
rain 1hr
in
rain 24hr
in
rain mn
in
humidity
%
barometer
mb
20260904200034 66 92 0.0 1.7 0.00 0.00 0.00 75 1010.2
20260904194513 66 92 0.0 1.7 0.00 0.00 0.00 83 1010.1
20260904193013 67 108 0.0 3.5 0.00 0.00 0.00 89 1010.1
20260904191514 67 105 0.9 3.5 0.00 0.00 0.00 91 1010.1
20260904190012 67 103 0.0 1.7 0.00 0.00 0.00 93 1010.0
20260904184510 68 90 0.0 1.7 0.00 0.00 0.00 93 1010.0
20260904183008 68 95 0.0 0.9 0.00 0.00 0.00 93 1010.1
20260904181508 68 103 0.0 1.7 0.00 0.00 0.00 93 1010.0
20260904180007 68 104 0.0 0.9 0.00 0.00 0.00 92 1010.0
20260904174506 68 104 0.0 1.7 0.00 0.00 0.00 92 1009.8
20260904173005 69 302 0.0 0.9 0.00 0.00 0.00 92 1009.8
20260904171503 69 301 0.0 0.9 0.00 0.00 0.00 92 1009.6
20260904170001 69 301 0.0 0.0 0.00 0.00 0.00 91 1009.3
20260904164601 70 301 0.0 0.0 0.00 0.00 0.00 91 1009.1
20260904163059 70 301 0.0 0.9 0.00 0.00 0.00 90 1008.9
20260904161601 71 301 0.0 0.9 0.00 0.00 0.00 90 1008.7
20260904160059 71 301 0.0 0.9 0.00 0.00 0.00 89 1008.6
20260904154556 72 311 0.0 1.7 0.00 0.00 0.00 88 1008.5
20260904153110 72 311 0.0 1.7 0.00 0.00 0.00 88 1008.4
20260904151553 72 301 0.0 2.6 0.00 0.00 0.00 88 1008.4
20260904150054 72 264 0.0 2.6 0.00 0.00 0.00 86 1008.4
20260904144603 73 294 0.0 5.2 0.00 0.00 0.00 86 1008.3
20260904143112 74 290 0.9 5.2 0.00 0.00 0.00 84 1008.3
20260904141554 74 283 0.9 2.6 0.00 0.00 0.00 84 1008.4
20260904140054 73 255 1.7 8.7 0.00 0.00 0.00 85 1008.4
20260904134556 74 264 0.9 5.2 0.00 0.00 0.00 85 1008.4
20260904133103 74 309 1.7 6.1 0.00 0.00 0.00 84 1008.3
20260904131549 75 335 2.6 7.8 0.00 0.00 0.00 82 1008.2
20260904130055 75 267 1.7 5.2 0.00 0.00 0.00 81 1008.2
20260904124551 76 255 0.9 5.2 0.00 0.00 0.00 81 1008.1
20260904123052 75 333 3.5 8.7 0.00 0.00 0.00 82 1008.2
20260904121548 75 280 3.5 8.7 0.00 0.00 0.00 82 1008.2
20260904120058 75 348 2.6 7.8 0.00 0.00 0.00 81 1008.3
20260904114549 75 322 1.7 7.8 0.00 0.00 0.00 81 1008.2
20260904113046 76 323 2.6 9.6 0.00 0.00 0.00 79 1008.4
20260904111545 75 19 2.6 6.1 0.00 0.00 0.00 80 1008.4
20260904110045 75 311 2.6 8.7 0.00 0.00 0.00 81 1008.4
20260904104545 75 329 5.2 9.6 0.00 0.00 0.00 80 1008.6
20260904103044 74 245 0.9 8.7 0.00 0.00 0.00 81 1008.5
20260904101542 75 255 3.5 7.8 0.00 0.00 0.00 80 1008.5
20260904100041 75 234 2.6 10.4 0.00 0.00 0.00 79 1008.5
20260904094541 75 255 1.7 10.4 0.00 0.00 0.00 79 1008.6
20260904093040 75 307 4.3 11.3 0.00 0.00 0.00 78 1008.5
20260904091539 75 255 2.6 11.3 0.00 0.00 0.00 77 1008.6
20260904090038 76 323 2.6 7.8 0.00 0.00 0.00 75 1008.6
20260904084545 77 255 1.7 8.7 0.00 0.00 0.00 71 1008.5
20260904083040 77 275 1.7 7.0 0.00 0.00 0.00 68 1008.5
20260904081533 76 272 1.7 5.2 0.00 0.00 0.00 70 1008.6
20260904080045 75 289 3.5 7.0 0.00 0.00 0.00 68 1008.6
20260904074531 75 347 0.9 5.2 0.00 0.00 0.00 70 1008.7
20260904073029 75 304 1.7 4.3 0.00 0.00 0.00 70 1008.8
20260904071531 74 285 0.0 3.5 0.00 0.00 0.00 73 1008.8
20260904070035 73 355 0.9 4.3 0.00 0.00 0.00 76 1008.7
20260904064524 73 305 1.7 5.2 0.00 0.00 0.00 75 1008.6
20260904063021 72 211 0.0 4.3 0.00 0.00 0.00 75 1008.5
20260904061519 72 202 0.9 4.3 0.00 0.00 0.00 76 1008.4
20260904060017 71 207 0.0 0.0 0.00 0.00 0.00 80 1008.3
20260904054527 70 207 0.0 1.7 0.00 0.00 0.00 83 1008.2
20260904053018 69 207 0.0 2.6 0.00 0.00 0.00 84 1008.2
20260904051513 69 188 0.0 3.5 0.00 0.00 0.00 85 1008.1
20260904050011 69 166 0.9 2.6 0.00 0.00 0.00 83 1008.2
20260904044512 68 157 0.0 1.7 0.00 0.00 0.00 80 1008.2
20260904043009 67 128 0.0 1.7 0.00 0.00 0.00 77 1008.2
20260904041508 67 97 0.0 0.0 0.00 0.00 0.00 70 1008.2
20260904040010 67 97 0.0 0.0 0.00 0.00 0.00 67 1008.0
20260904034505 67 97 0.0 0.0 0.00 0.00 0.00 68 1007.9
20260904033007 67 97 0.0 0.9 0.00 0.00 0.00 69 1007.7
20260904031503 66 97 0.0 0.9 0.00 0.00 0.00 71 1007.6
20260904030001 66 97 0.0 0.9 0.00 0.00 0.00 72 1007.4
20260904024600 66 97 0.0 0.9 0.00 0.00 0.00 74 1007.5
20260904023057 65 97 0.0 0.9 0.00 0.00 0.00 76 1007.3
20260904021606 65 97 0.0 0.9 0.00 0.00 0.00 78 1007.3
20260904020056 65 97 0.0 0.9 0.00 0.00 0.00 83 1007.2
20260904014604 65 97 0.0 1.7 0.00 0.00 0.00 87 1007.2
20260904013113 65 99 0.0 0.9 0.00 0.00 0.00 89 1007.2
20260904011614 66 99 0.0 0.9 0.00 0.00 0.00 91 1007.2
20260904010045 66 100 0.0 2.6 0.00 0.00 0.00 92 1007.3
20260904004544 66 107 0.9 2.6 0.00 0.00 0.00 93 1007.4
20260904003044 66 101 0.9 2.6 0.00 0.00 0.00 92 1007.5
20260904001541 67 116 0.0 1.7 0.00 0.00 0.00 92 1007.5
20260904000040 67 97 0.9 2.6 0.00 0.00 0.00 92 1007.5
20260903234538 67 154 0.0 0.9 0.00 0.00 0.00 92 1007.5
20260903233038 68 157 0.0 1.7 0.00 0.00 0.00 92 1007.4
20260903231544 68 161 0.0 0.9 0.00 0.00 0.00 92 1007.5
20260903230036 68 161 0.0 1.7 0.00 0.00 0.00 92 1007.5
20260903224538 69 161 0.0 0.9 0.00 0.00 0.00 92 1007.5
20260903223033 69 161 0.0 0.9 0.00 0.00 0.00 93 1007.5
20260903221531 69 162 0.0 1.7 0.00 0.00 0.00 94 1007.4
20260903220036 70 197 0.0 0.0 0.00 0.00 0.00 94 1007.5
20260903214530 70 197 0.0 0.0 0.00 0.00 0.00 94 1007.5
20260903213026 70 197 0.0 0.0 0.00 0.00 0.00 95 1007.6
20260903211533 70 176 0.0 0.0 0.00 0.00 0.00 95 1007.7
20260903210022 70 176 0.0 0.0 0.00 0.00 0.00 95 1007.8
20260903204521 70 176 0.0 0.9 0.00 0.00 0.00 95 1007.8
20260903203021 70 176 0.0 0.9 0.00 0.00 0.00 94 1007.7
20260903201521 70 176 0.0 1.7 0.00 0.00 0.00 94 1007.8